LiveATC.Net - Listen to live air traffic control over the Internet!


ICAO: MMPB  IATA: PBC   Airport: Hermanos Serdan International Airport
City: Puebla
Country: Mexico   Continent: North America
MMPB METAR Weather: MMPB 282352Z 36004KT 7SM BKN020CB BKN200 17/12 A3026 RMK 8/908 HZY
MMPB Flight Activity (FlightAware)
MMPB Tower
Feed Status: UP   Listeners: 1
Listen right in your browser - requires Flash (in browser, requires Flash)
Click here to listen with your own player (launches your MP3 player)
MMPB Tower Audio Archives
FacilityFrequency
Puebla Approach127.000
Puebla Tower118.200


NOTICE

Unauthorized use prohibited. See LiveATC.net Terms of Service


Find LiveATC Audio Streams


Airport/ARTCC Code

Frequency
(e.g., 124.400, 128.75)
Site-wide search

Browse LiveATC Feeds
LiveATC Coverage Map
Top 50 LiveATC Feeds
Bad Weather Areas

LiveATC FAQ
Offer a LiveATC Feed
Contact LiveATC.net
Press Inquiries

LiveATC on iPhone
LiveATC on Android

Windows Phone
Windows 8/10

LiveATC Mobile
(Mobile browser)

ATC Audio Archives
Interesting Recordings

LiveATC Forums


Home Page
About LiveATC.net
Make a Donation
LiveATC Store

Terms of Use
Privacy Policy

Canadian Air Freqs

AIRMETs/SIGMETs

FAA Airport Status
Nat'l Airspace Status
Arrival Demand Charts


Server Software By:
Icecast.org
Liquidsoap